sat.trackr.live / text

‹ back to catalog

ONEWEB-0302

NORAD 49091 · 2021-075S

PAYLOAD ACTIVE UNKNOWN

§ Identity

Operator
Country
UK
Launch date
2021-08-21
Launch site
TYMSC
Launch vehicle
Mass (kg)
RCS (m²)

Purposes: comms

External: N2YO · Heavens-Above · Gunter

§ Orbital elements

Epoch: 2026-09-20T03:25:04.878048Z

Period
109.72 min
Inclination
87.8976°
Eccentricity
0.0001563
Mean motion
13.12442193 rev/d
Perigee alt
1,212.5 km
Apogee alt
1,214.9 km
Semi-major
7,591.9 km
B*
-1.0669e-3
RAAN
331.8145°
Arg perigee
102.3978°
Mean anomaly
257.7325°
Rev number
24,700

§ Raw data

ONEWEB-03021 49091U 21075S   26263.14241757 -.00000371  00000+0 -10669-2 0  99942 49091  87.8976 331.8145 0001563 102.3978 257.7325 13.12442193247004

JSON: /api/v1/satellites/49091 · /tle

For live sub-satellite position, see the globe view (requires WebGL).

§ Visibility from observer

Set your observer location to see the next 7 days of passes ≥ 10°. The values pass through the URL so the page stays shareable.

No JS? Fill the form by hand. The geolocation button needs JavaScript.